Location: Bethel Church
(40.1039°N, 99.6490°W)
Time: 18:05:34
(UTC+00:00)

Daily predictions for brighter satellites

Satellite Brightness Start Highest point End
(mag) Time Altitude Azimuth Time Altitude Azimuth Time Altitude Azimuth
Cosmos 1943 4.1 12:04:05 23° W 12:05:41 27° NW 12:10:25 10° N
Okean O Rocket 2.7 12:03:02 10° NNE 12:07:14 46° E 12:11:24 10° S
ADEOS Rocket 4.0 12:05:27 10° SE 12:11:37 56° ENE 12:18:31 10° N
Cosmos 1633 3.3 12:09:34 10° NNW 12:12:48 30° W 12:15:59 10° SSW
Cosmos 1484 Rocket 3.5 12:13:05 10° N 12:16:39 32° WNW 12:20:13 10° SW
Cosmos 1633 Rocket 3.0 12:15:09 10° N 12:19:34 89° WSW 12:23:57 10° S
Cosmos 2233 Rocket 4.4 12:13:34 10° N 12:19:51 68° E 12:26:08 10° SSE
Cosmos 1238 Rocket 3.6 12:15:41 10° NNW 12:21:02 47° W 12:25:28 10° SSW
COSMO-SKYMED 1 2.8 12:17:07 10° S 12:21:18 48° W 12:25:32 10° NNW
CZ-4B DEB 4.1 12:17:51 10° N 12:23:20 76° WNW 12:28:45 10° SSW
CZ-4B R/B 3.5 12:18:57 10° NNE 12:24:14 70° ESE 12:29:30 10° S
ALOS 2.5 12:19:48 10° N 12:24:17 47° WNW 12:28:43 10° SW
Cosmos 1666 Rocket 3.5 12:21:45 10° NNW 12:26:06 60° W 12:30:23 10° S
Cosmos 1862 3.7 12:24:17 10° NNW 12:27:59 39° W 12:31:41 10° SSW
METEOR-M 4.3 12:22:59 10° N 12:28:09 52° WNW 12:33:18 10° SSW
NOAA 6 4.1 12:24:52 10° NNE 12:30:04 90° WNW 12:35:13 10° SSW
ATLAS 2AS CENTAUR R/B 3.7 12:25:57 10° NNW 12:33:20 51° NE 12:40:03 10° ESE
SL-8 R/B 4.1 12:29:40 10° SW 12:34:26 67° SE 12:39:13 10° ENE
Shenzhou-11 Module 2.0 12:36:15 14° WNW 12:38:21 56° N 12:40:56 10° E
H-2A R/B 4.2 12:38:00 10° NNW 12:40:41 16° WNW 12:43:24 10° WSW
Cosmos 1346 Rocket 2.7 12:37:39 10° N 12:41:34 88° E 12:45:26 10° S
COSMOS 2406 4.4 12:37:08 10° S 12:42:31 47° ESE 12:47:56 10° NE
Cosmos 1606 2.6 12:39:19 10° S 12:43:06 77° W 12:46:54 10° N
ISS -3.5 12:40:01 10° WSW 12:43:17 51° NNW 12:46:36 10° NE
STARLINK-1129 4.0 12:51:18 10° NW 12:54:38 48° NE 12:57:57 10° ESE
